Notices

What's New in latest release on October 27, 2021:

- Updated email addresses on the CDO Contacts page.

- Updated station operator of Churchill Falls (Climate ID: 8501130).

- Radar site name change from Jimmy Lake to Cold Lake on October 27, 2021.

Hourly Data Report for July 08, 2021

ST. JOHN'S INTL A
NEWFOUNDLAND
Current Station Operator: NAVCAN

47°37'07.000" N
52°45'09.000" W
140.50 m
8403505
71801
YYT

Download Data

Hourly Data (July 2021)
Hourly Data Report for July 8, 2021
TIME
LST
Temp Definition
°C
Dew Point Definition
°C
Rel Hum Definition
%
Precip. Amount Definition
mm

Wind Dir Definition
10's deg

Wind Spd Definition
km/h
Visibility Definition
km
Stn Press Definition
kPa
Hmdx Definition


Wind Chill Definition


Weather Definition


00:30 15.1 14.3 95   27 26 24.1 99.00     LegendNANA
01:30 14.9 13.7 93   27 35 24.1 98.99     LegendNANA
02:30 13.6 12.5 93   27 39 24.1 99.02     Mostly Cloudy
03:30 12.9 11.8 93   27 33 24.1 99.11     LegendNANA
04:30 12.0 11.0 93   27 32 24.1 99.18     LegendNANA
05:30 12.5 10.7 89   28 22 24.1 99.27     Mostly Cloudy
06:30 13.0 10.3 83   27 28 24.1 99.36     LegendNANA
07:30 14.4 10.8 78   28 35 24.1 99.44     LegendNANA
08:30 16.0 10.6 70   28 37 24.1 99.47     Mainly Clear
09:30 17.0 11.6 70   28 32 24.1 99.58     LegendNANA
10:30 18.1 11.6 66   30 30 24.1 99.69     LegendNANA
11:30 18.6 11.0 61   33 26 24.1 99.76     Mostly Cloudy
12:30 18.2 10.2 59   7 11 24.1 99.89     LegendNANA
13:30 11.1 8.4 83   5 30 24.1 100.05     LegendNANA
14:30 11.5 8.0 79   6 28 24.1 100.15     Mostly Cloudy
15:30 11.1 7.9 80   5 19 24.1 100.28     LegendNANA
16:30 10.2 7.5 83   6 17 24.1 100.39     LegendNANA
17:30 9.4 6.6 83   5 18 24.1 100.49     Cloudy
18:30 9.1 6.3 83   6 14 24.1 100.58     LegendNANA
19:30 8.8 6.4 85   8 10 24.1 100.72     LegendNANA
20:30 8.6 6.2 85   8 11 24.1 100.83     Mostly Cloudy
21:30 7.8 5.8 87   9 5 24.1 100.90     LegendNANA
22:30 7.1 4.5 83   15 4 24.1 100.95     LegendNANA
23:30 6.8 4.7 87   20 8 24.1 100.99     Mainly Clear

Notes on Data Quality.

Legend

  • E = Estimated
  • M = Missing
  • NA = Not Available*
  • [empty] = Indicates an unobserved value
Date modified: